Location: Bégole
(43.1574°N, 0.3291°E)
Time: 02:30:38
(UTC+00:00)

CZ-4 R/B - Pass Details

Date: 28 January 2023
Orbit: 526 x 587 km, 97.7° (Epoch: 27 March)

Event Time Altitude Azimuth Distance (km) Brightness Sun altitude
Rises 19:49:31 0° 193° (SSW) 2,807 5.1 -30.0°
Reaches altitude 10° 19:51:56 10° 205° (SSW) 1,910 4.3 -30.4°
Maximum altitude 19:55:29 27° 264° (W) 1,131 3.4 -31.1°
Drops below altitude 10° 19:59:03 10° 324° (NW) 1,908 4.5 -31.7°
Sets 20:01:28 0° 336° (NNW) 2,804 5.3 -32.2°
